HYS231 LRIA-LROP

Flight info

Callsign HYS231
Flight time 0h 44m
Altitude 10000
Route ABOLO T74 DENAK
Aircraft A320/M-SDE3FGHIRWY/LB1

Departure

Time 2026-05-08 14:02
Airport Iaşi International Airport (LRIA)

Arrival

Time 2026-05-08 14:46
Airport Bucharest Henri Coandă International Airport (LROP)
Time Latitude Longitude Altitude Speed Heading
2026-05-08 13:36 47.17453 27.62042 375 ft 0 kts 269°
2026-05-08 13:51 47.17453 27.62047 374 ft 2 kts 282°
2026-05-08 13:52 47.17448 27.62071 335 ft 2 kts 289°
2026-05-08 13:52 47.17442 27.62095 393 ft 2 kts 289°
2026-05-08 13:52 47.17437 27.62120 389 ft 3 kts 289°
2026-05-08 13:52 47.17431 27.62144 389 ft 2 kts 289°
2026-05-08 13:53 47.17428 27.62161 389 ft 1 kts 294°
2026-05-08 13:53 47.17421 27.62175 389 ft 0 kts 317°
2026-05-08 13:55 47.17494 27.62103 389 ft 12 kts 329°
2026-05-08 13:56 47.17572 27.62043 389 ft 14 kts 334°
2026-05-08 13:56 47.17663 27.61978 389 ft 16 kts 334°
2026-05-08 13:56 47.17746 27.61932 388 ft 11 kts 10°
2026-05-08 13:56 47.17795 27.62036 390 ft 14 kts 64°
2026-05-08 13:57 47.17846 27.62180 388 ft 17 kts 51°
2026-05-08 13:57 47.17946 27.62165 390 ft 15 kts 326°
2026-05-08 13:57 47.18032 27.62089 391 ft 14 kts 328°
2026-05-08 13:57 47.18111 27.62018 394 ft 13 kts 328°
2026-05-08 13:58 47.18187 27.61950 398 ft 14 kts 328°
2026-05-08 13:58 47.18282 27.61864 402 ft 18 kts 328°
2026-05-08 13:58 47.18390 27.61770 407 ft 17 kts 329°
2026-05-08 13:58 47.18488 27.61683 412 ft 15 kts 329°
2026-05-08 13:59 47.18573 27.61608 413 ft 13 kts 329°
2026-05-08 13:59 47.18646 27.61542 417 ft 11 kts 329°
2026-05-08 13:59 47.18716 27.61480 422 ft 12 kts 329°
2026-05-08 13:59 47.18787 27.61417 425 ft 12 kts 329°
2026-05-08 14:00 47.18852 27.61367 426 ft 10 kts 343°
2026-05-08 14:00 47.18920 27.61364 427 ft 10 kts 354°
2026-05-08 14:00 47.18951 27.61306 431 ft 9 kts 253°
2026-05-08 14:00 47.18890 27.61324 429 ft 0 kts 149°
2026-05-08 14:01 47.18742 27.61450 423 ft 62 kts 150°
2026-05-08 14:01 47.18187 27.61950 398 ft 122 kts 148°
2026-05-08 14:01 47.17334 27.62709 463 ft 156 kts 150°
2026-05-08 14:02 47.16456 27.63512 1228 ft 145 kts 152°
2026-05-08 14:02 47.15473 27.63985 1722 ft 153 kts 172°
2026-05-08 14:02 47.14405 27.64073 2295 ft 157 kts 181°
2026-05-08 14:02 47.13254 27.63818 2570 ft 179 kts 195°
2026-05-08 14:03 47.12040 27.63023 2818 ft 204 kts 211°
2026-05-08 14:03 47.10948 27.61618 3321 ft 220 kts 227°
2026-05-08 14:03 47.10122 27.59573 3648 ft 247 kts 249°
2026-05-08 14:03 47.09767 27.57000 4274 ft 263 kts 259°
2026-05-08 14:04 47.09388 27.54363 5182 ft 264 kts 253°
2026-05-08 14:04 47.08793 27.51827 6186 ft 263 kts 248°
2026-05-08 14:04 47.07997 27.49395 7093 ft 264 kts 241°
2026-05-08 14:04 47.07013 27.47122 7877 ft 270 kts 234°
2026-05-08 14:05 47.05878 27.44895 8737 ft 272 kts 233°
2026-05-08 14:05 47.04740 27.42652 9548 ft 277 kts 234°
2026-05-08 14:05 47.03583 27.40364 9898 ft 279 kts 234°
2026-05-08 14:05 47.02428 27.38074 9998 ft 280 kts 234°
2026-05-08 14:06 47.01272 27.35785 10007 ft 279 kts 234°
2026-05-08 14:06 47.00063 27.33569 10009 ft 279 kts 226°
2026-05-08 14:06 46.98551 27.31771 10006 ft 281 kts 217°
2026-05-08 14:06 46.96960 27.30118 10007 ft 281 kts 217°
2026-05-08 14:07 46.95368 27.28456 10010 ft 281 kts 217°
2026-05-08 14:07 46.93797 27.26813 10010 ft 281 kts 217°
2026-05-08 14:07 46.92211 27.25154 10008 ft 280 kts 217°
2026-05-08 14:07 46.90622 27.23493 10009 ft 280 kts 217°
2026-05-08 14:08 46.89038 27.21837 10001 ft 280 kts 217°
2026-05-08 14:08 46.87450 27.20177 10001 ft 280 kts 217°
2026-05-08 14:08 46.85854 27.18509 9997 ft 281 kts 217°
2026-05-08 14:08 46.84269 27.16857 10000 ft 281 kts 217°
2026-05-08 14:09 46.82675 27.15193 10001 ft 282 kts 218°
2026-05-08 14:09 46.81092 27.13539 10005 ft 282 kts 217°
2026-05-08 14:09 46.79486 27.11865 10009 ft 283 kts 217°
2026-05-08 14:09 46.77876 27.10192 10016 ft 283 kts 217°
2026-05-08 14:10 46.76284 27.08545 10023 ft 283 kts 217°
2026-05-08 14:10 46.74676 27.06881 10026 ft 283 kts 217°
2026-05-08 14:10 46.73089 27.05235 10028 ft 283 kts 217°
2026-05-08 14:10 46.71478 27.03565 10031 ft 283 kts 217°
2026-05-08 14:11 46.69875 27.01906 10035 ft 283 kts 217°
2026-05-08 14:11 46.68268 27.00242 10035 ft 283 kts 218°
2026-05-08 14:11 46.66648 26.98567 10040 ft 283 kts 218°
2026-05-08 14:11 46.65043 26.96910 10042 ft 283 kts 217°
2026-05-08 14:12 46.63437 26.95253 10042 ft 283 kts 218°
2026-05-08 14:12 46.61853 26.93624 10043 ft 283 kts 217°
2026-05-08 14:12 46.60245 26.91969 10042 ft 283 kts 217°
2026-05-08 14:12 46.58633 26.90305 10044 ft 284 kts 217°
2026-05-08 14:13 46.57018 26.88640 10046 ft 284 kts 217°
2026-05-08 14:13 46.55422 26.86997 10048 ft 284 kts 217°
2026-05-08 14:13 46.53803 26.85334 10049 ft 284 kts 218°
2026-05-08 14:13 46.52185 26.83686 10048 ft 284 kts 215°
2026-05-08 14:14 46.50402 26.82446 10042 ft 287 kts 200°
2026-05-08 14:14 46.48437 26.81837 10041 ft 289 kts 192°
2026-05-08 14:14 46.46457 26.81332 10040 ft 289 kts 192°
2026-05-08 14:14 46.44473 26.80818 10040 ft 289 kts 193°
2026-05-08 14:15 46.42511 26.80300 10040 ft 289 kts 193°
2026-05-08 14:15 46.40532 26.79774 10028 ft 289 kts 193°
2026-05-08 14:15 46.38565 26.79250 10032 ft 289 kts 193°
2026-05-08 14:15 46.36560 26.78717 10033 ft 289 kts 193°
2026-05-08 14:16 46.34580 26.78192 10032 ft 289 kts 193°
2026-05-08 14:16 46.32624 26.77674 10031 ft 289 kts 193°
2026-05-08 14:16 46.30633 26.77148 10031 ft 289 kts 193°
2026-05-08 14:16 46.28649 26.76622 10034 ft 289 kts 193°
2026-05-08 14:17 46.26688 26.76104 10049 ft 289 kts 193°
2026-05-08 14:17 46.24705 26.75583 10031 ft 289 kts 192°
2026-05-08 14:17 46.22716 26.75062 10040 ft 289 kts 192°
2026-05-08 14:17 46.20752 26.74548 10046 ft 289 kts 193°
2026-05-08 14:18 46.18768 26.74027 10040 ft 289 kts 193°
2026-05-08 14:18 46.16790 26.73507 10040 ft 289 kts 193°
2026-05-08 14:18 46.14806 26.72983 10042 ft 289 kts 193°
2026-05-08 14:18 46.12854 26.72470 10049 ft 289 kts 193°
2026-05-08 14:19 46.10854 26.71947 10045 ft 289 kts 193°
2026-05-08 14:19 46.08890 26.71434 10044 ft 289 kts 192°
2026-05-08 14:19 46.06910 26.70916 10054 ft 289 kts 193°
2026-05-08 14:19 46.04943 26.70400 10057 ft 289 kts 193°
2026-05-08 14:20 46.02966 26.69882 10044 ft 289 kts 192°
2026-05-08 14:20 46.00986 26.69364 10039 ft 290 kts 191°
2026-05-08 14:20 45.98988 26.68843 10039 ft 290 kts 191°
2026-05-08 14:20 45.97016 26.68330 10038 ft 290 kts 192°
2026-05-08 14:21 45.95020 26.67813 10040 ft 290 kts 192°
2026-05-08 14:21 45.93048 26.67302 10040 ft 290 kts 192°
2026-05-08 14:21 45.91044 26.66784 10041 ft 291 kts 192°
2026-05-08 14:21 45.89050 26.66267 10044 ft 291 kts 192°
2026-05-08 14:22 45.87060 26.65750 10060 ft 291 kts 192°
2026-05-08 14:22 45.85097 26.65242 10045 ft 289 kts 192°
2026-05-08 14:22 45.83123 26.64731 10041 ft 286 kts 192°
2026-05-08 14:22 45.81166 26.64223 10041 ft 286 kts 192°
2026-05-08 14:23 45.79208 26.63712 10040 ft 287 kts 192°
2026-05-08 14:23 45.77258 26.63207 10041 ft 287 kts 192°
2026-05-08 14:23 45.75284 26.62696 10038 ft 286 kts 192°
2026-05-08 14:23 45.73319 26.62188 10040 ft 285 kts 192°
2026-05-08 14:24 45.71385 26.61686 10041 ft 286 kts 192°
2026-05-08 14:24 45.69411 26.61176 10045 ft 286 kts 192°
2026-05-08 14:24 45.67454 26.60673 10041 ft 286 kts 192°
2026-05-08 14:24 45.65518 26.60176 10050 ft 286 kts 192°
2026-05-08 14:25 45.63559 26.59673 10060 ft 285 kts 191°
2026-05-08 14:25 45.61586 26.59169 10042 ft 286 kts 192°
2026-05-08 14:25 45.59643 26.58671 10044 ft 286 kts 192°
2026-05-08 14:25 45.57673 26.58164 10042 ft 286 kts 192°
2026-05-08 14:26 45.55704 26.57657 10043 ft 286 kts 192°
2026-05-08 14:26 45.53762 26.57157 10039 ft 285 kts 192°
2026-05-08 14:26 45.51800 26.56653 10043 ft 287 kts 192°
2026-05-08 14:26 45.49840 26.56151 10044 ft 287 kts 192°
2026-05-08 14:27 45.47873 26.55647 10041 ft 287 kts 193°
2026-05-08 14:27 45.45910 26.55147 10055 ft 287 kts 192°
2026-05-08 14:27 45.43967 26.54652 10041 ft 287 kts 192°
2026-05-08 14:27 45.42000 26.54151 10050 ft 286 kts 192°
2026-05-08 14:28 45.40038 26.53650 10043 ft 286 kts 192°
2026-05-08 14:28 45.38095 26.53156 10037 ft 286 kts 192°
2026-05-08 14:28 45.36114 26.52653 10045 ft 286 kts 192°
2026-05-08 14:28 45.34177 26.52159 10037 ft 286 kts 192°
2026-05-08 14:29 45.32215 26.51659 10043 ft 286 kts 192°
2026-05-08 14:29 45.30253 26.51158 10036 ft 286 kts 192°
2026-05-08 14:29 45.28289 26.50661 10030 ft 286 kts 192°
2026-05-08 14:29 45.26356 26.50174 10037 ft 285 kts 191°
2026-05-08 14:30 45.24394 26.49676 10035 ft 285 kts 192°
2026-05-08 14:30 45.22456 26.49182 10028 ft 286 kts 192°
2026-05-08 14:30 45.20482 26.48680 10035 ft 286 kts 192°
2026-05-08 14:30 45.18523 26.48183 10029 ft 286 kts 192°
2026-05-08 14:31 45.16566 26.47688 10024 ft 286 kts 191°
2026-05-08 14:31 45.14606 26.47194 10032 ft 286 kts 192°
2026-05-08 14:31 45.12672 26.46711 10021 ft 286 kts 191°
2026-05-08 14:32 45.08755 26.45721 10024 ft 286 kts 191°
2026-05-08 14:32 45.06790 26.45220 10023 ft 286 kts 192°
2026-05-08 14:32 45.04825 26.44721 10006 ft 287 kts 192°
2026-05-08 14:32 45.03526 26.44394 10003 ft 287 kts 192°
2026-05-08 14:33 45.00877 26.44018 9997 ft 289 kts 177°
2026-05-08 14:33 44.99544 26.44289 10003 ft 291 kts 168°
2026-05-08 14:33 44.97036 26.45701 10000 ft 293 kts 156°
2026-05-08 14:33 44.95811 26.46521 10001 ft 293 kts 155°
2026-05-08 14:34 44.93954 26.47757 10009 ft 293 kts 157°
2026-05-08 14:34 44.92095 26.48992 10015 ft 294 kts 157°
2026-05-08 14:34 44.90244 26.50218 10009 ft 294 kts 157°
2026-05-08 14:34 44.88389 26.51444 10021 ft 294 kts 157°
2026-05-08 14:35 44.86559 26.52654 10017 ft 294 kts 156°
2026-05-08 14:35 44.84684 26.53896 9996 ft 295 kts 156°
2026-05-08 14:35 44.82857 26.55106 9846 ft 293 kts 156°
2026-05-08 14:35 44.81016 26.56324 9714 ft 293 kts 156°
2026-05-08 14:36 44.79165 26.57547 9585 ft 293 kts 157°
2026-05-08 14:36 44.77316 26.58771 9460 ft 292 kts 156°
2026-05-08 14:36 44.75494 26.59978 9338 ft 292 kts 157°
2026-05-08 14:36 44.73662 26.61189 9193 ft 291 kts 157°
2026-05-08 14:37 44.71847 26.62386 9070 ft 284 kts 156°
2026-05-08 14:37 44.70050 26.63394 8942 ft 273 kts 167°
2026-05-08 14:37 44.68207 26.63814 8801 ft 264 kts 176°
2026-05-08 14:37 44.66408 26.64060 8610 ft 256 kts 176°
2026-05-08 14:38 44.64646 26.64305 8147 ft 253 kts 176°
2026-05-08 14:38 44.62920 26.64160 7679 ft 247 kts 199°
2026-05-08 14:38 44.61455 26.62999 7218 ft 242 kts 225°
2026-05-08 14:38 44.60524 26.61074 6728 ft 239 kts 250°
2026-05-08 14:39 44.60222 26.58781 6220 ft 239 kts 264°
2026-05-08 14:39 44.60061 26.56455 5711 ft 239 kts 263°
2026-05-08 14:39 44.59888 26.54155 5501 ft 238 kts 263°
2026-05-08 14:39 44.59721 26.51889 5225 ft 228 kts 263°
2026-05-08 14:40 44.59564 26.49712 4964 ft 221 kts 263°
2026-05-08 14:40 44.59410 26.47576 4710 ft 220 kts 263°
2026-05-08 14:40 44.59257 26.45447 4440 ft 220 kts 262°
2026-05-08 14:40 44.59103 26.43313 4178 ft 220 kts 263°
2026-05-08 14:41 44.58950 26.41201 3922 ft 219 kts 262°
2026-05-08 14:41 44.58796 26.39083 3658 ft 218 kts 262°
2026-05-08 14:41 44.58641 26.36955 3394 ft 218 kts 262°
2026-05-08 14:41 44.58487 26.34845 3149 ft 216 kts 262°
2026-05-08 14:42 44.58336 26.32787 2897 ft 208 kts 263°
2026-05-08 14:42 44.58190 26.30798 2639 ft 203 kts 262°
2026-05-08 14:42 44.58047 26.28856 2407 ft 197 kts 262°
2026-05-08 14:42 44.57908 26.26967 2169 ft 192 kts 262°
2026-05-08 14:43 44.57776 26.25168 1963 ft 178 kts 261°
2026-05-08 14:43 44.57647 26.23559 1830 ft 161 kts 263°
2026-05-08 14:43 44.57562 26.22010 1631 ft 153 kts 262°
2026-05-08 14:43 44.57436 26.20541 1396 ft 152 kts 260°
2026-05-08 14:44 44.57310 26.19070 1205 ft 154 kts 260°
2026-05-08 14:44 44.57229 26.17587 1052 ft 153 kts 261°
2026-05-08 14:44 44.57121 26.16105 826 ft 152 kts 261°
2026-05-08 14:44 44.56997 26.14607 678 ft 156 kts 261°
2026-05-08 14:45 44.56874 26.13110 480 ft 154 kts 263°
2026-05-08 14:45 44.56763 26.11629 328 ft 147 kts 263°
2026-05-08 14:45 44.56670 26.10360 322 ft 109 kts 264°
2026-05-08 14:45 44.56607 26.09536 320 ft 66 kts 264°
2026-05-08 14:46 44.56565 26.08984 320 ft 39 kts 264°
2026-05-08 14:46 44.56575 26.08683 321 ft 31 kts 302°
2026-05-08 14:46 44.56743 26.08576 320 ft 15 kts 353°
2026-05-08 14:46 44.56764 26.08572 320 ft 0 kts 353°
2026-05-08 14:48 44.56778 26.08570 320 ft 4 kts 354°
2026-05-08 14:48 44.56827 26.08563 319 ft 10 kts 353°
2026-05-08 14:48 44.56908 26.08579 320 ft 14 kts 37°
2026-05-08 14:48 44.56933 26.08731 320 ft 18 kts 85°
2026-05-08 14:49 44.56895 26.08821 320 ft 11 kts 171°
2026-05-08 14:49 44.56875 26.08824 320 ft 0 kts 174°